This is the latest recevied weather packets stored in our database for station/object KG5CK-1. If no packets are shown the sender has not sent any weather packets the latest 10 day(s).
| Time | Temp. | Humidity | Pressure | Rain* | Wind** | Luminosity | Snow |
|---|---|---|---|---|---|---|---|
| 1777921683 | 26.67° C | 54% | 1006.2 hPa | 0 mm | 2.24 m/s, 182° | - | - |
| 1777921622 | 26.67° C | 54% | 1006.2 hPa | 0 mm | 2.24 m/s, 182° | - | - |
| 1777921562 | 26.67° C | 54% | 1006.2 hPa | 0 mm | 2.24 m/s, 182° | - | - |
| 1777921503 | 26.67° C | 54% | 1006.2 hPa | 0 mm | 1.79 m/s, 12° | - | - |
| 1777921443 | 26.67° C | 54% | 1006.2 hPa | 0 mm | 1.79 m/s, 12° | - | - |
| 1777921383 | 26.67° C | 54% | 1006.2 hPa | 0 mm | 1.79 m/s, 12° | - | - |
| 1777921323 | 26.67° C | 54% | 1006.2 hPa | 0 mm | 1.79 m/s, 12° | - | - |
| 1777921262 | 26.67° C | 54% | 1006.2 hPa | 0 mm | 1.79 m/s, 12° | - | - |
| 1777921203 | 26.11° C | 55% | 1006.3 hPa | 0 mm | 1.34 m/s, 169° | - | - |
| 1777921143 | 26.11° C | 55% | 1006.3 hPa | 0 mm | 1.34 m/s, 169° | - | - |
| 1777921082 | 26.11° C | 55% | 1006.3 hPa | 0 mm | 1.34 m/s, 169° | - | - |
| 1777921022 | 26.11° C | 55% | 1006.3 hPa | 0 mm | 1.34 m/s, 169° | - | - |
| 1777920963 | 26.11° C | 55% | 1006.3 hPa | 0 mm | 1.34 m/s, 169° | - | - |
| 1777920903 | 26.11° C | 54% | 1006 hPa | 0 mm | 0.89 m/s, 78° | - | - |
| 1777920844 | 26.11° C | 54% | 1006 hPa | 0 mm | 0.89 m/s, 78° | - | - |
| 1777920783 | 26.11° C | 54% | 1006 hPa | 0 mm | 0.89 m/s, 78° | - | - |
| 1777920724 | 26.11° C | 54% | 1006 hPa | 0 mm | 0.89 m/s, 78° | - | - |
| 1777920663 | 26.11° C | 54% | 1006 hPa | 0 mm | 0.89 m/s, 78° | - | - |
| 1777920603 | 26.11° C | 55% | 1006.3 hPa | 0 mm | 2.24 m/s, 226° | - | - |
| 1777920543 | 26.11° C | 55% | 1006.3 hPa | 0 mm | 2.24 m/s, 226° | - | - |
| 1777920482 | 26.11° C | 55% | 1006.3 hPa | 0 mm | 2.24 m/s, 226° | - | - |
| 1777920423 | 26.11° C | 55% | 1006.3 hPa | 0 mm | 2.24 m/s, 226° | - | - |
| 1777920362 | 26.11° C | 55% | 1006.3 hPa | 0 mm | 2.24 m/s, 226° | - | - |
| 1777920303 | 26.11° C | 54% | 1006.4 hPa | 0 mm | 3.13 m/s, 200° | - | - |
| 1777920243 | 26.11° C | 54% | 1006.4 hPa | 0 mm | 3.13 m/s, 200° | - | - |
* Rain latest hour (hover to see other rain measurements)
** Current wind speed in m/s (hover to see current wind gust speed)